TimeCDT,TemperatureF,Dew PointF,Humidity,Sea Level PressureIn,VisibilityMPH,Wind Direction,Wind SpeedMPH,Gust SpeedMPH,PrecipitationIn,Events,Conditions,WindDirDegrees,DateUTC
12:53 AM,64.9,62.1,90,29.91,9.0,South,9.2,-,N/A,,Overcast,170,2014-05-10 05:53:00
1:53 AM,64.9,62.1,90,29.90,8.0,South,10.4,-,N/A,,Overcast,180,2014-05-10 06:53:00
2:25 AM,64.9,62.1,90,29.92,8.0,SSW,6.9,-,0.00,Rain,Light Rain,200,2014-05-10 07:25:00
2:53 AM,64.9,63.0,93,29.91,6.0,South,8.1,-,0.00,,Overcast,190,2014-05-10 07:53:00
3:03 AM,64.9,62.1,90,29.91,5.0,SSW,8.1,-,N/A,,Overcast,200,2014-05-10 08:03:00
3:53 AM,64.0,62.1,93,29.90,6.0,SSW,4.6,-,N/A,,Mostly Cloudy,210,2014-05-10 08:53:00
4:07 AM,64.9,62.1,90,29.91,7.0,WNW,3.5,-,N/A,,Mostly Cloudy,290,2014-05-10 09:07:00
4:31 AM,64.9,63.0,93,29.92,7.0,Calm,Calm,-,N/A,,Overcast,0,2014-05-10 09:31:00
4:53 AM,64.9,63.0,93,29.92,6.0,Calm,Calm,-,N/A,,Overcast,0,2014-05-10 09:53:00
5:09 AM,64.9,63.0,93,29.92,5.0,WNW,3.5,-,0.00,Rain,Light Rain,290,2014-05-10 10:09:00
5:22 AM,64.9,63.0,93,29.92,5.0,NNW,3.5,-,0.00,,Overcast,330,2014-05-10 10:22:00
5:34 AM,64.9,63.0,93,29.92,4.0,Calm,Calm,-,0.00,,Overcast,0,2014-05-10 10:34:00
6:04 AM,64.9,63.0,93,29.92,3.0,Calm,Calm,-,N/A,,Mostly Cloudy,0,2014-05-10 11:04:00
6:11 AM,64.9,63.0,93,29.93,2.0,Calm,Calm,-,N/A,,Mostly Cloudy,0,2014-05-10 11:11:00
6:43 AM,64.9,64.0,97,29.94,2.5,SSE,3.5,-,N/A,,Overcast,150,2014-05-10 11:43:00
6:51 AM,64.4,62.6,94,29.94,3.0,ESE,3.5,-,N/A,,Overcast,120,2014-05-10 11:51:00
6:53 AM,64.9,63.0,93,29.94,3.0,SE,3.5,-,N/A,,Overcast,130,2014-05-10 11:53:00
7:00 AM,64.9,63.0,93,29.94,3.0,ESE,3.5,-,N/A,,Overcast,120,2014-05-10 12:00:00
7:07 AM,66.0,64.0,93,29.94,3.0,SE,3.5,-,N/A,,Mostly Cloudy,140,2014-05-10 12:07:00
7:21 AM,64.9,64.0,97,29.94,3.0,SE,3.5,-,N/A,,Mostly Cloudy,130,2014-05-10 12:21:00
7:53 AM,66.0,63.0,90,29.95,4.0,South,3.5,-,N/A,,Overcast,190,2014-05-10 12:53:00
8:19 AM,66.0,63.0,90,29.96,5.0,South,4.6,-,N/A,,Overcast,190,2014-05-10 13:19:00
8:53 AM,66.9,64.0,90,29.96,4.0,SSW,4.6,-,N/A,,Overcast,200,2014-05-10 13:53:00
9:05 AM,66.9,64.0,90,29.96,5.0,Variable,3.5,-,N/A,,Overcast,0,2014-05-10 14:05:00
9:20 AM,66.9,64.0,90,29.96,5.0,SSW,4.6,-,N/A,,Overcast,200,2014-05-10 14:20:00
9:30 AM,66.9,64.0,90,29.96,5.0,SSW,5.8,-,N/A,,Overcast,200,2014-05-10 14:30:00
9:36 AM,66.9,64.0,90,29.96,5.0,SW,5.8,-,N/A,,Overcast,220,2014-05-10 14:36:00
9:53 AM,66.9,63.0,87,29.95,5.0,SSW,4.6,-,N/A,,Mostly Cloudy,210,2014-05-10 14:53:00
10:33 AM,69.1,64.0,84,29.95,6.0,South,3.5,-,N/A,,Haze,170,2014-05-10 15:33:00
10:53 AM,69.1,63.0,81,29.95,6.0,WNW,6.9,-,N/A,,Haze,300,2014-05-10 15:53:00
11:24 AM,72.0,64.0,76,29.95,7.0,NW,8.1,-,N/A,,Overcast,320,2014-05-10 16:24:00
11:53 AM,73.0,64.0,73,29.94,6.0,NNW,8.1,-,N/A,,Haze,330,2014-05-10 16:53:00
12:53 PM,75.9,63.0,64,29.93,8.0,NW,10.4,-,N/A,,Partly Cloudy,310,2014-05-10 17:53:00
1:53 PM,77.0,61.0,58,29.92,8.0,NW,12.7,-,N/A,,Partly Cloudy,320,2014-05-10 18:53:00
2:53 PM,78.1,60.1,54,29.92,8.0,NW,11.5,-,N/A,,Mostly Cloudy,320,2014-05-10 19:53:00
3:53 PM,80.1,54.0,40,29.91,10.0,NW,11.5,21.9,N/A,,Clear,310,2014-05-10 20:53:00
4:53 PM,79.0,54.0,42,29.92,10.0,West,8.1,-,N/A,,Clear,270,2014-05-10 21:53:00
5:53 PM,79.0,52.0,39,29.92,10.0,NNW,4.6,-,N/A,,Clear,340,2014-05-10 22:53:00
6:53 PM,78.1,51.1,39,29.91,10.0,Calm,Calm,-,N/A,,Clear,0,2014-05-10 23:53:00
7:53 PM,73.0,55.9,55,29.94,10.0,ENE,4.6,-,N/A,,Clear,70,2014-05-11 00:53:00
8:53 PM,69.1,57.0,65,29.95,10.0,East,5.8,-,0.00,Rain,Light Rain,90,2014-05-11 01:53:00
10:53 PM,69.1,62.1,78,29.97,8.0,SE,9.2,-,N/A,,Clear,140,2014-05-11 03:53:00
11:53 PM,68.0,63.0,84,29.99,7.0,SE,4.6,-,N/A,,Scattered Clouds,140,2014-05-11 04:53:00